Lebanon, NH

5:10 AM EDT on July 25, 2017 (GMT -0400)
Lebanon Municipal

Weather History for KLEB - December, 2012

Change the Weather History Date:

Saturday, December 15, 2012

  Actual Average Record
Temperature  
Mean Temperature 29 °F -  
Max Temperature 37 °F 32 °F 54 °F (2008)
Min Temperature 21 °F 16 °F -14 °F (1989)
Degree Days  
Heating Degree Days 36    
Moisture  
Dew Point 15 °F    
Average Humidity 58    
Maximum Humidity 75    
Minimum Humidity 33    
Precipitation  
Precipitation 0.00 in - - ()
Sea Level Pressure  
Sea Level Pressure 30.30 in    
Wind  
Wind Speed 4 mph (NNE)    
Max Wind Speed 8 mph    
Max Gust Speed -    
Visibility 10 miles    
Events      
Averages and records for this station are not official NWS values.
T = Trace of Precipitation, MM = Missing Value Source: NWS Daily Summary

Daily Weather History Graph

Daily Weather History Graph

Search for Another Location

Airport or City:

Trip Planner

Search our weather history database for the weather conditions in past years. The results will help you decide how hot, cold, wet, or windy it might be!

Date:

Astronomy

Dec. 15, 2012 Rise Set
Actual Time 7:16 AM EST 4:13 PM EST
Civil Twilight 6:43 AM EST 4:45 PM EST
Nautical Twilight 6:06 AM EST 5:22 PM EST
Astronomical Twilight 5:32 AM EST 5:57 PM EST
Moon 9:03 AM EST (12/15) 7:17 PM EST (12/15)
Length of Visible Light 10h 02m
Length of Day
8h 57m
Waxing Crescent, 8% of the Moon is Illuminated
Dec 15
Waxing Crescent
Dec 20
First Quarter
Dec 28
Full
Jan 4
Last Quarter
Jan 11
New

Hourly Weather History & Observations

Time (EST) Temp. Windchill Dew Point Humidity Pressure Visibility Wind Dir Wind Speed Gust Speed Precip Events Conditions
12:53 AM 37.0 °F 33.3 °F 25.0 °F 62% 30.19 in 10.0 mi North 4.6 mph - N/A   Overcast
1:53 AM 36.0 °F 29.6 °F 24.1 °F 62% 30.20 in 10.0 mi NNW 8.1 mph - N/A   Partly Cloudy
2:53 AM 30.9 °F 23.5 °F 23.0 °F 72% 30.23 in 10.0 mi NNE 8.1 mph - N/A   Scattered Clouds
3:53 AM 32.0 °F 26.4 °F 21.9 °F 66% 30.23 in 10.0 mi North 5.8 mph - N/A   Clear
4:53 AM 30.0 °F - 21.9 °F 72% 30.27 in 10.0 mi Calm Calm - N/A   Mostly Cloudy
5:20 AM 30.2 °F 25.4 °F 19.4 °F 64% 30.25 in 10.0 mi NNE 4.6 mph - N/A   Overcast
5:48 AM 28.4 °F - 19.4 °F 69% 30.27 in 10.0 mi Calm Calm - N/A   Partly Cloudy
5:53 AM 28.0 °F - 19.9 °F 72% 30.30 in 10.0 mi Calm Calm - N/A   Partly Cloudy
6:53 AM 26.1 °F 20.5 °F 18.0 °F 71% 30.31 in 10.0 mi NE 4.6 mph - N/A   Partly Cloudy
7:53 AM 25.0 °F 20.7 °F 18.0 °F 75% 30.34 in 10.0 mi NE 3.5 mph - N/A   Partly Cloudy
8:53 AM 30.9 °F 26.2 °F 18.0 °F 59% 30.35 in 10.0 mi North 4.6 mph - N/A   Clear
9:53 AM 32.0 °F 25.6 °F 18.0 °F 56% 30.36 in 10.0 mi NNE 6.9 mph - N/A   Clear
10:53 AM 33.1 °F 26.1 °F 15.1 °F 48% 30.34 in 10.0 mi NE 8.1 mph - N/A   Clear
11:53 AM 34.0 °F - 12.0 °F 40% 30.33 in 10.0 mi Calm Calm - N/A   Clear
12:53 PM 36.0 °F 32.1 °F 10.0 °F 34% 30.31 in 10.0 mi NNE 4.6 mph - N/A   Clear
1:53 PM 36.0 °F - 9.0 °F 33% 30.30 in 10.0 mi Calm Calm - N/A   Clear
2:53 PM 34.0 °F 28.0 °F 10.0 °F 37% 30.30 in 10.0 mi NE 6.9 mph - N/A   Clear
3:53 PM 32.0 °F 27.5 °F 9.0 °F 38% 30.32 in 10.0 mi NNE 4.6 mph - N/A   Clear
4:53 PM 26.1 °F 21.9 °F 10.9 °F 53% 30.32 in 10.0 mi NE 3.5 mph - N/A   Clear
5:53 PM 26.1 °F 21.9 °F 10.0 °F 51% 30.32 in 10.0 mi NNE 3.5 mph - N/A   Clear
6:53 PM 21.0 °F - 12.9 °F 71% 30.35 in 10.0 mi Calm Calm - N/A   Clear
7:53 PM 24.1 °F 18.2 °F 10.0 °F 55% 30.34 in 10.0 mi NE 4.6 mph - N/A   Clear
8:53 PM 24.1 °F - 9.0 °F 53% 30.34 in 10.0 mi Calm Calm - N/A   Clear
9:53 PM 21.0 °F 14.6 °F 10.9 °F 65% 30.34 in 10.0 mi NE 4.6 mph - N/A   Clear
10:53 PM 21.9 °F 15.7 °F 14.0 °F 72% 30.34 in 10.0 mi NE 4.6 mph - N/A   Clear
11:53 PM 21.9 °F - 12.9 °F 68% 30.34 in 10.0 mi Calm Calm - N/A   Scattered Clouds